Date,TemperatureHighF,TemperatureAvgF,TemperatureLowF,DewpointHighF,DewpointAvgF,DewpointLowF,HumidityHigh,HumidityAvg,HumidityLow,PressureMaxIn,PressureMinIn,WindSpeedMaxMPH,WindSpeedAvgMPH,GustSpeedMaxMPH,PrecipitationSumIn
2013-1-1,27,26,24,20,19,19,84,76,71,0.00,40.00,7,3,12,0.00
2013-1-2,27,25,24,20,20,19,84,78,74,0.00,40.00,7,6,13,0.00
2013-1-3,27,25,24,20,19,18,81,76,71,0.00,40.00,10,4,13,0.00
2013-1-4,27,26,23,20,20,19,88,78,74,0.00,40.00,6,3,9,0.00
2013-1-5,31,28,26,27,24,20,95,83,74,0.00,40.00,9,5,15,0.00
2013-1-6,29,28,25,27,26,22,95,92,88,0.00,40.00,10,3,13,0.00
2013-1-7,48,28,25,30,26,24,95,92,49,0.00,40.00,25,4,45,0.00
2013-1-8,44,37,32,37,31,27,96,80,54,0.00,40.00,22,4,29,0.00
2013-1-9,46,43,40,37,29,19,76,58,42,0.00,40.00,28,17,37,0.00
2013-1-10,38,32,25,23,19,14,77,59,49,0.00,40.00,7,3,9,0.00
2013-1-11,34,27,22,18,16,14,74,63,47,0.00,40.00,12,2,17,0.00
2013-1-12,30,22,17,16,13,10,83,68,46,0.00,40.00,6,1,10,0.00
2013-1-13,27,21,15,17,14,11,87,73,57,0.00,40.00,0,0,6,0.00
2013-1-14,29,23,20,20,19,17,88,81,65,0.00,40.00,3,0,6,0.00
2013-1-15,29,23,18,21,18,15,87,81,68,0.00,40.00,3,0,5,0.00
2013-1-16,30,25,18,24,21,15,88,84,78,0.00,40.00,7,1,9,0.00
2013-1-17,28,27,26,24,23,22,88,85,81,0.00,40.00,7,1,9,0.00
2013-1-18,28,27,26,26,24,23,95,91,84,0.00,40.00,6,1,7,0.00
2013-1-19,33,27,20,24,22,18,92,81,66,0.00,40.00,5,2,7,0.00
2013-1-20,24,23,19,22,21,17,95,91,88,0.00,40.00,6,1,7,0.00
2013-1-21,23,21,20,21,19,17,95,89,84,0.00,40.00,6,2,7,0.00
2013-1-22,23,21,19,18,17,16,91,84,74,0.00,40.00,9,4,10,0.00
2013-1-23,28,24,20,24,20,17,91,82,74,0.00,40.00,6,1,9,0.00
2013-1-24,27,23,17,23,20,14,91,89,84,0.00,40.00,6,2,7,0.00
2013-1-25,30,27,22,28,24,20,92,87,81,0.00,40.00,2,1,5,0.00
2013-1-26,32,29,21,27,25,18,92,85,78,0.00,40.00,5,2,7,0.00
2013-1-27,31,29,27,28,26,25,95,89,84,0.00,40.00,5,1,6,0.00
2013-1-28,35,29,26,28,27,25,95,91,75,0.00,40.00,7,4,10,0.00
2013-1-29,35,29,26,28,26,24,95,90,75,0.00,40.00,8,5,9,0.00
2013-1-31,49,42,37,37,34,31,85,72,49,0.00,40.00,17,4,24,0.00
2013-2-1,48,39,31,36,32,28,88,75,62,0.00,40.00,8,4,13,0.00
2013-2-2,43,32,25,33,28,23,95,85,67,0.00,40.00,5,2,6,0.00
2013-2-3,32,30,25,30,28,23,96,93,88,0.00,40.00,5,1,6,0.00
2013-2-4,32,30,28,31,29,27,100,96,92,0.00,40.00,3,1,7,0.00
2013-2-5,50,36,29,39,32,28,100,88,60,0.00,40.00,17,3,17,0.00
2013-2-6,47,42,35,35,32,30,81,69,53,0.00,40.00,14,6,18,0.00
2013-2-7,48,38,31,33,29,24,92,71,43,0.00,40.00,6,2,8,0.00
2013-2-8,47,36,27,26,24,21,81,62,35,0.00,40.00,10,3,14,0.00
2013-2-9,45,36,26,30,26,22,85,68,43,0.00,40.00,7,2,12,0.00
2013-2-10,50,38,27,30,27,25,92,65,42,0.00,40.00,7,1,7,0.00
2013-2-11,39,31,23,30,27,21,95,84,67,0.00,40.00,5,2,7,0.00
2013-2-12,53,38,29,36,31,27,92,78,44,0.00,40.00,15,5,24,0.00
2013-2-13,55,48,40,36,30,27,65,49,36,0.00,40.00,30,11,45,0.00
2013-2-14,51,40,32,32,29,26,84,65,44,0.00,40.00,8,4,12,0.00
2013-2-15,51,38,29,35,30,26,88,73,51,0.00,40.00,6,2,9,0.00
2013-2-16,55,40,29,35,29,26,92,67,38,0.00,40.00,22,7,30,0.00
2013-2-17,52,42,34,27,25,23,69,52,31,0.00,40.00,12,7,16,0.00
2013-2-18,40,34,28,28,26,22,84,70,59,0.00,40.00,6,1,9,0.00
2013-2-19,45,36,29,28,27,25,88,69,48,0.00,40.00,9,2,12,0.00
2013-2-20,46,36,25,27,24,21,88,65,43,0.00,40.00,9,2,12,0.00
2013-2-21,49,36,24,31,27,20,91,69,43,0.00,40.00,12,4,17,0.00
2013-2-22,52,43,38,34,30,21,69,59,47,0.00,40.00,22,10,39,0.00
2013-2-23,51,42,34,27,24,19,61,48,34,0.00,40.00,22,10,32,0.00
2013-2-24,46,39,31,28,26,23,74,59,48,0.00,40.00,14,6,21,0.00
2013-2-25,47,39,31,30,26,20,85,61,37,0.00,40.00,23,11,38,0.00
2013-2-26,49,41,35,26,22,17,69,49,28,0.00,40.00,12,6,17,0.00
2013-2-27,52,39,26,30,27,22,88,65,42,0.00,40.00,7,3,13,0.00
2013-2-28,44,40,37,40,36,30,96,84,67,0.00,40.00,12,1,14,0.00
2013-3-1,58,53,44,44,42,36,85,65,52,0.00,40.00,17,12,20,0.00
2013-3-2,55,47,39,42,37,26,92,68,49,0.00,40.00,28,7,36,0.00
2013-3-3,50,42,32,26,22,15,66,46,31,0.00,40.00,21,10,31,0.00
2013-3-4,49,37,30,24,20,17,65,51,31,0.00,40.00,7,2,9,0.00
2013-3-5,42,36,32,33,25,19,92,64,44,0.00,40.00,13,7,17,0.00
2013-3-6,39,36,33,35,34,32,96,92,82,0.00,40.00,15,8,18,0.00
2013-3-7,52,43,37,35,32,29,88,66,40,0.00,40.00,15,8,18,0.00
2013-3-8,52,41,33,37,33,31,92,76,48,0.00,40.00,8,2,12,0.00
2013-3-9,58,45,32,32,27,23,88,53,26,0.00,40.00,14,4,20,0.00
2013-3-10,49,42,32,37,31,23,81,65,46,0.00,40.00,12,4,16,0.00
2013-3-11,52,46,40,32,28,22,67,50,30,0.00,40.00,13,4,18,0.00
2013-3-12,64,50,39,42,37,28,75,59,42,0.00,40.00,14,6,20,0.00
2013-3-13,60,55,51,45,42,40,71,61,51,0.00,40.00,17,11,27,0.00
2013-3-14,63,54,44,46,41,34,89,64,43,0.00,40.00,12,5,17,0.00
2013-3-15,63,56,48,39,36,33,68,48,34,0.00,40.00,17,11,28,0.00
2013-3-16,56,50,40,36,32,23,60,50,38,0.00,40.00,24,10,36,0.00
2013-3-17,48,42,36,26,22,18,61,46,32,0.00,40.00,28,17,44,0.00
2013-3-18,52,43,34,26,23,19,61,45,26,0.00,40.00,25,11,37,0.00
2013-3-19,47,38,26,36,23,19,92,57,32,0.00,40.00,7,2,10,0.00
2013-3-20,56,43,34,42,33,18,96,72,35,0.00,40.00,25,9,36,0.00
2013-3-21,49,42,36,26,21,17,66,44,27,0.00,40.00,22,16,38,0.00
2013-3-22,46,37,29,25,20,16,68,50,30,0.00,40.00,13,5,18,0.00
2013-3-23,47,36,27,21,18,15,65,49,27,0.00,40.00,8,2,10,0.00
2013-3-24,34,27,23,20,17,16,74,66,49,0.00,40.00,5,1,6,0.00
2013-3-25,53,46,34,25,21,19,61,38,27,0.00,40.00,7,3,10,0.00
2013-3-26,59,48,36,31,26,22,61,44,30,0.00,40.00,7,2,10,0.00
2013-3-27,59,50,44,35,33,30,70,52,40,0.00,40.00,5,1,9,0.00
2013-3-28,62,50,41,43,38,34,82,62,42,0.00,40.00,9,3,12,0.00
2013-3-29,50,45,42,38,36,34,76,70,63,0.00,40.00,5,1,6,0.00
2013-3-30,67,58,40,40,32,-100,75,46,34,0.00,40.00,7,3,9,0.00
2013-3-31,70,56,41,43,37,34,75,50,29,0.00,40.00,6,2,9,0.00
2013-4-1,69,55,48,38,36,34,63,49,29,0.00,40.00,5,1,9,0.00
2013-4-2,47,47,47,35,35,35,62,62,62,0.00,40.00,0,0,2,0.00
2013-4-3,66,61,54,40,38,36,54,42,32,0.00,40.00,10,5,13,0.00
2013-4-4,55,50,45,50,44,36,92,79,48,0.00,40.00,9,1,12,0.00
2013-4-5,66,55,48,44,42,38,85,63,42,0.00,40.00,20,10,25,0.00
2013-4-6,53,50,48,40,39,38,73,67,56,0.00,40.00,24,13,29,0.00
2013-4-8,55,48,40,40,37,33,85,64,48,0.00,40.00,9,3,15,0.00
2013-4-9,60,49,34,40,36,31,88,64,39,0.00,40.00,9,4,13,0.00
2013-4-10,63,53,46,46,39,33,79,59,40,0.00,40.00,28,13,46,0.00
2013-4-11,59,49,39,33,30,29,69,48,33,0.00,40.00,18,11,28,0.00
2013-4-12,53,43,32,35,29,25,75,60,39,0.00,40.00,10,3,20,0.00
2013-4-13,52,45,38,33,24,18,70,42,34,0.00,40.00,32,20,45,0.00
2013-4-15,48,42,37,36,32,29,79,67,51,0.00,40.00,13,5,20,0.00
2013-4-16,51,43,33,31,22,15,85,48,23,0.00,40.00,17,8,27,0.00
2013-4-17,58,45,29,28,24,21,78,48,25,0.00,40.00,13,4,20,0.00
2013-4-18,66,53,42,38,34,28,62,48,31,0.00,40.00,18,6,25,0.00
2013-4-19,65,56,50,40,38,37,68,52,36,0.00,40.00,21,12,32,0.00
2013-4-20,62,54,48,37,35,33,63,49,34,0.00,40.00,24,16,39,0.00
2013-4-21,63,50,43,36,32,28,62,50,27,0.00,40.00,21,9,29,0.00
2013-4-22,57,47,35,30,24,15,64,42,18,0.00,40.00,13,6,16,0.00
2013-4-23,61,49,35,31,27,19,66,44,27,0.00,40.00,12,4,15,0.00
2013-4-24,71,56,37,34,28,21,69,38,19,0.00,40.00,17,6,21,0.00
2013-4-25,78,62,43,40,33,22,57,35,23,0.00,40.00,17,6,28,0.00
2013-4-26,83,66,47,44,35,24,70,37,13,0.00,40.00,20,7,28,0.00
2013-4-27,73,63,55,38,31,24,50,32,20,0.00,40.00,28,16,41,0.00
2013-4-28,57,53,50,37,34,28,56,48,32,0.00,40.00,21,15,32,0.00
2013-4-29,56,51,43,36,27,20,65,41,24,0.00,40.00,27,15,41,0.00
2013-4-30,57,48,37,28,24,18,61,40,23,0.00,40.00,14,9,24,0.00
2013-5-1,62,48,31,27,23,17,74,42,18,0.00,40.00,9,4,13,0.00
2013-5-2,71,55,36,37,30,24,72,41,19,0.00,40.00,9,4,14,0.00
2013-5-3,76,63,52,42,37,33,54,39,20,0.00,40.00,18,8,31,0.00
2013-5-4,76,66,51,39,35,31,60,33,19,0.00,40.00,18,11,27,0.00
2013-5-5,80,65,48,40,35,31,65,37,17,0.00,40.00,18,7,27,0.00
2013-5-6,86,68,53,47,37,30,58,34,14,0.00,40.00,8,5,13,0.00
2013-5-7,87,71,53,48,41,36,66,37,16,0.00,40.00,13,4,14,0.00
2013-5-8,89,73,57,55,48,45,71,44,23,0.00,40.00,13,4,14,0.00
2013-5-9,89,72,56,49,45,34,69,41,14,0.00,40.00,9,4,13,0.00
2013-5-10,90,70,59,51,38,-100,57,37,16,0.00,40.00,7,4,10,0.00
2013-5-11,90,73,62,56,44,-100,60,40,18,0.00,40.00,7,3,17,0.00
2013-5-12,80,72,61,52,50,48,69,48,36,0.00,40.00,13,7,20,0.00
2013-5-13,72,62,51,49,42,29,66,49,27,0.00,40.00,25,12,41,0.00
2013-5-14,70,57,46,36,29,13,62,37,13,0.00,40.00,15,7,24,0.00
2013-5-15,66,57,47,45,38,33,70,51,31,0.00,40.00,17,5,23,0.00
2013-5-16,71,60,50,46,31,-100,73,52,31,0.00,40.00,7,3,10,0.00
2013-5-17,73,62,54,47,43,38,66,50,33,0.00,40.00,12,6,27,0.00
2013-5-18,71,60,50,40,38,33,63,45,26,0.00,40.00,16,9,22,0.00
2013-5-19,75,59,46,41,38,36,73,48,27,0.00,40.00,15,6,22,0.00
2013-5-20,75,64,49,47,41,39,73,45,27,0.00,40.00,12,5,15,0.00
2013-5-21,59,55,49,49,46,43,89,70,57,0.00,40.00,13,5,17,0.00
2013-5-22,51,46,43,43,39,36,96,77,58,0.00,40.00,13,6,20,0.00
2013-5-23,60,49,38,42,38,36,96,70,42,0.00,40.00,7,3,16,0.00
2013-5-24,62,51,43,45,42,38,89,72,46,0.00,40.00,13,4,21,0.00
2013-5-25,65,54,43,45,40,36,89,62,38,0.00,40.00,9,4,14,0.00
2013-5-26,69,58,48,46,43,41,79,59,37,0.00,40.00,10,3,17,0.00
2013-5-27,58,50,43,46,43,40,89,78,64,0.00,40.00,5,2,8,0.00
2013-5-28,69,61,50,52,46,41,100,60,37,0.00,40.00,13,5,17,0.00
2013-5-29,62,54,48,52,44,37,92,71,44,0.00,40.00,22,7,33,0.00
2013-5-30,69,59,49,39,37,33,65,46,27,0.00,40.00,20,8,28,0.00
2013-5-31,71,58,43,41,37,34,79,48,25,0.00,40.00,12,5,12,0.00
2013-6-1,75,63,48,46,42,39,76,48,27,0.00,40.00,12,4,20,0.00
2013-6-2,72,64,49,45,42,39,73,45,32,0.00,40.00,12,5,23,0.00
2013-6-3,76,63,47,50,42,40,76,49,27,0.00,40.00,9,4,13,0.00
2013-6-4,80,67,52,51,46,43,74,49,27,0.00,40.00,7,4,12,0.00
2013-6-5,89,73,54,53,48,43,74,45,20,0.00,40.00,13,6,22,0.00
2013-6-6,92,76,58,50,45,40,74,37,16,0.00,40.00,14,6,20,0.00
2013-6-7,83,72,62,52,46,40,55,39,30,0.00,40.00,27,12,43,0.00
2013-6-8,85,69,51,47,42,38,73,40,19,0.00,40.00,18,8,30,0.00
2013-6-9,82,67,55,43,38,17,54,37,8,0.00,40.00,17,7,25,0.00
2013-6-10,78,64,47,40,37,35,70,41,21,0.00,40.00,15,4,18,0.00
2013-6-11,69,61,51,41,38,33,68,44,26,0.00,40.00,24,13,36,0.00
2013-6-12,74,62,44,39,36,32,76,41,22,0.00,40.00,15,8,22,0.00
2013-6-13,72,59,49,43,38,35,65,47,26,0.00,40.00,18,7,22,0.00
2013-6-14,76,63,49,45,39,35,68,43,25,0.00,40.00,12,6,18,0.00
2013-6-15,80,68,52,52,43,38,68,43,22,0.00,40.00,6,4,13,0.00
2013-6-16,86,74,57,49,44,37,66,36,19,0.00,40.00,14,5,22,0.00
2013-6-17,85,72,62,56,48,39,77,45,20,0.00,40.00,16,6,27,0.00
2013-6-18,66,59,55,55,53,47,93,79,50,0.00,40.00,13,6,27,0.00
2013-6-19,68,61,54,51,45,42,86,56,40,0.00,40.00,14,6,22,0.00
2013-6-20,60,58,55,49,42,40,74,56,49,0.00,40.00,22,15,31,0.00
2013-6-22,76,69,59,51,49,47,69,49,38,0.00,40.00,12,6,16,0.00
2013-6-23,75,65,54,55,49,45,80,57,34,0.00,40.00,9,3,13,0.00
2013-6-24,68,63,57,58,53,47,93,72,50,0.00,40.00,12,6,14,0.00
2013-6-25,71,60,52,58,52,48,96,77,43,0.00,40.00,13,6,20,0.00
2013-6-26,74,64,53,57,51,48,83,62,47,0.00,40.00,13,6,15,0.00
2013-6-27,77,65,59,57,54,50,89,69,48,0.00,40.00,6,3,10,0.00
2013-6-28,88,76,60,63,58,55,83,56,35,0.00,40.00,9,4,12,0.00
2013-6-29,86,77,68,65,62,59,75,60,42,0.00,40.00,9,4,15,0.00
2013-6-30,92,78,65,63,60,49,83,56,23,0.00,40.00,7,4,10,0.00
2013-7-1,100,86,67,63,57,54,70,40,23,0.00,40.00,12,5,16,0.00
2013-7-2,103,86,69,63,58,49,73,43,18,0.00,40.00,13,5,21,0.00
2013-7-3,97,82,68,51,45,34,52,30,11,0.00,40.00,15,8,25,0.00
2013-7-4,88,75,62,49,45,43,60,36,22,0.00,40.00,21,10,32,0.00
2013-7-5,84,71,56,48,45,42,63,41,25,0.00,40.00,16,8,22,0.00
2013-7-6,86,70,55,55,48,41,74,49,20,0.00,40.00,9,4,12,0.00
2013-7-7,89,78,65,54,50,45,62,39,25,0.00,40.00,12,6,15,0.00
2013-7-8,88,74,58,53,50,44,77,45,21,0.00,40.00,13,6,17,0.00
2013-7-9,90,74,62,60,54,50,67,50,25,0.00,40.00,10,4,14,0.00
2013-7-10,95,78,62,55,48,33,64,39,16,0.00,40.00,15,7,22,0.00
2013-7-11,82,69,63,47,40,34,53,36,17,0.00,40.00,13,8,18,0.00
2013-7-12,78,67,55,42,37,31,61,34,20,0.00,40.00,13,6,18,0.00
2013-7-13,80,68,51,46,40,37,58,36,23,0.00,40.00,7,5,13,0.00
2013-7-14,92,77,56,49,42,35,61,32,13,0.00,40.00,12,5,15,0.00
2013-7-15,84,72,59,42,38,29,49,31,17,0.00,40.00,13,7,21,0.00
2013-7-16,92,78,66,44,41,39,39,27,16,0.00,40.00,17,10,22,0.00
2013-7-17,93,82,71,59,51,42,53,34,20,0.00,40.00,10,5,17,0.00
2013-7-18,92,79,62,56,50,45,55,37,25,0.00,40.00,7,4,12,0.00
2013-7-19,96,79,62,54,47,35,55,34,17,0.00,40.00,9,3,14,0.00
2013-7-20,100,82,64,47,41,29,50,27,8,0.00,40.00,18,7,27,0.00
2013-7-21,99,82,60,51,44,37,43,27,15,0.00,40.00,15,8,23,0.00
2013-7-22,98,83,62,50,46,33,55,30,10,0.00,40.00,14,7,25,0.00
2013-7-23,95,81,63,54,49,46,55,34,22,0.00,40.00,7,4,14,0.00
2013-7-24,97,81,65,51,45,40,52,31,15,0.00,40.00,9,4,13,0.00
2013-7-25,102,82,65,51,44,29,54,29,7,0.00,40.00,14,5,21,0.00
2013-7-26,101,81,60,44,40,35,47,25,10,0.00,40.00,17,6,25,0.00
2013-7-27,91,78,65,44,39,33,39,26,12,0.00,40.00,17,6,22,0.00
2013-7-28,88,74,56,45,42,37,52,32,17,0.00,40.00,15,6,24,0.00
2013-7-29,85,75,64,56,48,43,58,39,22,0.00,40.00,7,4,12,0.00
2013-7-30,89,76,66,53,48,42,54,38,20,0.00,40.00,8,3,12,0.00
2013-7-31,92,79,66,51,47,42,52,34,20,0.00,40.00,9,4,14,0.00
2013-8-1,82,74,66,56,51,48,60,45,30,0.00,40.00,17,7,27,0.00
2013-8-2,77,66,59,59,55,50,86,67,41,0.00,40.00,13,4,17,0.00
2013-8-3,80,68,54,60,56,53,96,67,43,0.00,40.00,7,4,13,0.00
2013-8-4,87,74,61,58,56,53,80,54,33,0.00,40.00,10,4,14,0.00
2013-8-5,91,76,64,59,56,48,77,52,31,0.00,40.00,9,4,12,0.00
2013-8-6,94,78,65,54,49,42,52,37,21,0.00,40.00,9,4,14,0.00
2013-8-7,93,80,64,50,44,40,50,29,18,0.00,40.00,9,5,15,0.00
2013-8-8,93,78,65,56,48,44,52,35,22,0.00,40.00,9,4,12,0.00
2013-8-9,94,82,65,58,55,50,70,40,24,0.00,40.00,21,5,28,0.00
2013-8-10,90,79,68,61,57,55,75,49,31,0.00,40.00,16,-50,24,0.00
2013-8-11,85,75,63,60,57,52,77,55,32,0.00,40.00,9,5,15,0.00
2013-8-12,89,73,61,56,54,46,77,55,22,0.00,40.00,10,4,14,0.00
2013-8-13,90,76,63,57,53,46,75,46,23,0.00,40.00,7,4,12,0.00
2013-8-14,91,78,62,57,44,-100,64,40,22,0.00,40.00,8,4,12,0.00
2013-8-15,88,78,69,58,47,-100,56,43,31,0.00,40.00,14,6,18,0.00
2013-8-16,87,73,63,56,53,46,69,51,24,0.00,40.00,9,3,13,0.00
2013-8-17,89,73,62,55,46,-100,67,42,27,0.00,40.00,14,7,21,0.00
2013-8-18,91,76,59,53,48,44,69,41,22,0.00,40.00,13,7,18,0.00
2013-8-19,90,75,60,51,43,-100,64,40,23,0.00,40.00,21,7,33,0.00
2013-8-20,84,70,54,49,46,42,77,44,24,0.00,40.00,9,5,12,0.00
2013-8-21,87,73,64,51,46,38,53,39,17,0.00,40.00,9,4,12,0.00
2013-8-22,87,79,62,53,48,44,57,33,24,0.00,40.00,13,5,14,0.00
2013-8-23,87,77,68,56,52,46,58,42,29,0.00,40.00,8,5,14,0.00
2013-8-24,84,68,59,53,45,-100,74,48,27,0.00,40.00,10,4,15,0.00
2013-8-25,79,69,58,57,50,46,83,53,32,0.00,40.00,21,5,27,0.00
2013-8-26,79,68,57,58,53,49,86,62,37,0.00,40.00,14,7,18,0.00
2013-8-27,77,64,56,55,52,49,80,64,44,0.00,40.00,7,3,9,0.00
2013-8-28,87,80,72,59,56,52,63,44,33,0.00,40.00,9,5,13,0.00
2013-8-29,85,75,67,59,56,53,72,53,35,0.00,40.00,13,4,18,0.00
2013-8-30,82,73,63,56,50,46,70,47,30,0.00,40.00,10,6,22,0.00
2013-8-31,85,69,58,55,44,-100,69,45,28,0.00,40.00,9,4,14,0.00
2013-9-1,90,76,64,53,50,46,60,42,22,0.00,40.00,9,4,14,0.00
2013-9-2,85,74,63,57,54,48,77,51,27,0.00,40.00,12,5,14,0.00
2013-9-3,88,76,66,59,55,49,70,50,26,0.00,40.00,12,4,14,0.00
2013-9-4,87,76,68,58,55,53,58,48,34,0.00,40.00,9,4,14,0.00
2013-9-5,83,74,64,62,59,56,83,60,47,0.00,40.00,27,7,159,0.00
2013-9-6,68,62,56,59,57,54,96,84,67,0.00,40.00,7,3,9,0.00
2013-9-7,67,58,55,58,51,-100,100,83,67,0.00,40.00,9,3,12,0.00
2013-9-8,83,68,54,59,55,52,96,68,35,0.00,40.00,13,3,15,0.00
2013-9-9,85,71,59,57,54,52,80,58,33,0.00,40.00,8,4,10,0.00
2013-9-10,89,75,63,57,54,49,72,50,25,0.00,40.00,6,3,10,0.00
2013-9-11,93,79,65,54,52,51,62,41,25,0.00,40.00,12,5,15,0.00
2013-9-12,95,81,68,58,53,51,54,39,24,0.00,40.00,13,4,17,0.00
2013-9-13,97,80,66,58,54,50,67,42,20,0.00,40.00,10,2,12,0.00
2013-9-14,90,76,67,62,51,-100,67,46,31,0.00,40.00,9,4,12,0.00
2013-9-15,90,79,68,58,53,49,56,42,28,0.00,40.00,30,6,36,0.00
2013-9-16,77,69,61,58,52,47,86,57,34,0.00,40.00,18,9,27,0.00
2013-9-17,70,61,54,51,48,43,83,61,39,0.00,40.00,18,6,25,0.00
2013-9-18,60,56,53,43,42,40,63,59,47,0.00,40.00,10,7,15,0.00
2013-9-19,72,58,48,46,42,40,79,57,33,0.00,40.00,6,3,9,0.00
2013-9-20,76,63,51,46,42,40,68,48,28,0.00,40.00,13,4,18,0.00
2013-9-21,73,64,59,47,38,-100,59,42,31,0.00,40.00,14,6,18,0.00
2013-9-22,65,58,52,48,44,40,71,60,39,0.00,40.00,21,11,29,0.00
2013-9-23,67,58,51,44,42,40,73,56,38,0.00,40.00,12,8,17,0.00
2013-9-24,65,56,47,43,38,32,79,53,29,0.00,40.00,10,4,16,0.00
2013-9-25,70,57,47,40,36,28,76,48,20,0.00,40.00,12,5,17,0.00
2013-9-26,66,57,49,42,38,34,68,52,30,0.00,40.00,13,8,21,0.00
2013-9-27,58,53,47,46,41,34,82,64,55,0.00,40.00,12,6,17,0.00
2013-9-28,67,56,50,52,43,-100,92,69,48,0.00,40.00,35,13,51,0.00
2013-9-29,62,54,45,47,42,39,79,64,47,0.00,40.00,23,13,29,0.00
2013-9-30,63,56,46,47,39,36,79,54,37,0.00,40.00,21,12,159,0.00
2013-10-1,58,53,47,37,34,31,60,48,43,0.00,40.00,14,9,20,0.00
2013-10-2,53,46,35,40,37,33,92,71,56,0.00,40.00,8,4,13,0.00
2013-10-3,50,45,40,41,38,37,88,78,63,0.00,40.00,3,2,7,0.00
2013-10-9,58,55,54,37,35,34,52,47,40,0.00,40.00,15,9,21,0.00
2013-10-10,64,55,46,37,34,31,60,46,30,0.00,40.00,7,4,14,0.00
2013-10-11,60,51,45,37,35,32,73,56,35,0.00,40.00,7,2,9,0.00
2013-10-12,54,47,45,43,33,-100,82,64,54,0.00,40.00,7,2,12,0.00
2013-10-13,62,50,39,38,35,31,78,57,33,0.00,40.00,10,4,12,0.00
2013-10-14,62,51,41,35,32,29,67,49,30,0.00,40.00,13,5,17,0.00
2013-10-15,62,47,35,36,32,29,81,57,33,0.00,40.00,13,4,14,0.00
2013-10-16,65,51,39,38,35,31,72,55,32,0.00,40.00,9,3,13,0.00
2013-10-17,66,51,40,40,36,33,82,59,32,0.00,40.00,6,2,9,0.00
2013-10-18,63,50,37,40,36,31,82,62,41,0.00,40.00,9,4,10,0.00
2013-10-19,64,45,33,41,32,-100,96,67,41,0.00,40.00,9,2,10,0.00
2013-10-20,70,53,38,44,40,35,88,64,38,0.00,40.00,12,3,16,0.00
2013-10-21,68,53,40,46,42,37,88,66,40,0.00,40.00,6,3,9,0.00
2013-10-22,67,52,39,47,41,36,89,69,41,0.00,40.00,5,2,7,0.00
2013-10-23,67,54,41,46,42,38,88,68,45,0.00,40.00,7,2,9,0.00
2013-10-24,64,54,39,47,43,36,88,67,48,0.00,40.00,6,2,6,0.00
2013-10-25,63,50,39,45,42,37,92,74,51,0.00,40.00,5,2,7,0.00
2013-10-26,62,48,39,46,36,-100,92,71,49,0.00,40.00,6,2,8,0.00
2013-10-27,51,45,37,46,41,36,96,86,70,0.00,40.00,15,7,22,0.00
2013-10-28,52,45,37,40,27,22,73,49,30,0.00,40.00,25,14,35,0.00
2013-10-29,52,41,32,29,25,22,78,55,36,0.00,40.00,5,2,8,0.00
2013-10-30,50,37,25,31,26,22,88,65,42,0.00,40.00,6,3,7,0.00
2013-10-31,62,47,35,41,35,28,81,62,46,0.00,40.00,14,6,23,0.00
2013-11-1,64,50,40,41,37,33,76,61,42,0.00,40.00,9,4,13,0.00
2013-11-2,45,43,42,42,40,38,96,89,76,0.00,40.00,9,4,10,0.00
2013-11-3,47,41,36,29,28,26,72,59,45,0.00,40.00,12,7,22,0.00
2013-11-4,48,37,26,27,21,16,81,56,28,0.00,40.00,9,3,13,0.00
2013-11-5,38,36,32,34,32,24,96,84,56,0.00,40.00,6,3,7,0.00
2013-11-6,39,37,32,36,34,30,96,88,78,0.00,40.00,5,3,7,0.00
2013-11-7,44,39,37,39,37,35,96,91,79,0.00,40.00,15,5,17,0.00
2013-11-8,51,46,37,39,34,31,81,63,52,0.00,40.00,17,10,29,0.00
2013-11-9,42,37,32,37,29,-100,92,80,76,0.00,40.00,7,3,10,0.00
2013-11-10,47,43,39,39,37,35,88,80,70,0.00,40.00,9,5,13,0.00
2013-11-11,53,47,44,40,38,37,79,71,56,0.00,40.00,12,8,15,0.00
2013-11-12,51,44,36,43,40,35,96,84,71,0.00,40.00,7,3,12,0.00
2013-11-13,51,38,33,44,37,32,100,95,73,0.00,40.00,6,3,12,0.00
2013-11-14,50,38,29,39,35,29,100,89,65,0.00,40.00,7,3,8,0.00
2013-11-15,48,41,29,36,31,28,100,69,47,0.00,40.00,28,10,38,0.00
2013-11-16,49,42,40,34,23,-100,78,52,34,0.00,40.00,27,13,45,0.00
2013-11-17,53,45,40,37,33,26,82,62,50,0.00,40.00,22,12,31,0.00
2013-11-18,53,50,43,41,39,37,79,66,58,0.00,40.00,21,12,25,0.00
2013-11-19,56,48,36,42,32,17,79,57,25,0.00,40.00,25,12,36,0.00
2013-11-20,39,30,21,23,9,-3,55,41,17,0.00,40.00,10,4,15,0.00
2013-11-21,36,24,17,14,9,6,67,53,31,0.00,40.00,5,2,9,0.00
2013-11-22,37,25,15,16,13,9,83,60,36,0.00,40.00,5,2,7,0.00
2013-11-23,40,26,18,18,11,-100,80,60,35,0.00,40.00,5,1,6,0.00
2013-11-24,39,26,17,20,18,13,91,72,46,0.00,40.00,6,2,7,0.00
2013-11-25,40,29,21,23,21,16,84,71,48,0.00,40.00,3,2,5,0.00
2013-11-26,41,30,24,27,24,20,88,77,57,0.00,40.00,6,2,7,0.00
2013-11-27,42,30,22,29,25,20,95,81,57,0.00,40.00,3,2,6,0.00
2013-11-28,39,29,20,29,24,18,95,83,64,0.00,40.00,5,2,7,0.00
2013-11-29,29,25,21,28,24,19,95,94,91,0.00,40.00,3,1,6,0.00
2013-11-30,31,29,30,30,24,-100,96,92,92,0.00,40.00,5,1,6,0.00
2013-12-1,49,38,30,41,34,29,100,85,65,0.00,40.00,15,4,33,0.00
2013-12-2,45,37,28,33,23,13,66,55,44,0.00,40.00,25,12,39,0.00
2013-12-3,33,28,23,22,12,8,84,52,37,0.00,40.00,18,11,29,0.00
2013-12-4,29,21,13,8,6,4,66,52,38,0.00,40.00,15,8,24,0.00
2013-12-5,21,16,8,8,4,1,72,60,47,0.00,40.00,9,2,14,0.00
2013-12-6,21,18,15,9,3,-1,70,52,39,0.00,40.00,18,13,25,0.00
2013-12-7,21,12,4,-2,-9,-100,72,43,26,0.00,40.00,15,9,22,0.00
2013-12-8,17,8,2,1,-2,-4,79,63,40,0.00,40.00,7,3,12,0.00
2013-12-9,22,11,2,5,1,-3,79,66,41,0.00,40.00,6,2,12,0.00
2013-12-10,26,15,8,10,6,3,79,66,41,0.00,40.00,3,1,3,0.00
2013-12-11,32,21,10,16,12,4,83,68,49,0.00,40.00,3,2,6,0.00
2013-12-12,28,24,19,22,18,14,87,78,71,0.00,40.00,5,2,6,0.00
2013-12-13,33,24,17,22,19,14,91,81,63,0.00,40.00,5,2,7,0.00
2013-12-14,34,27,20,25,18,-100,91,76,63,0.00,40.00,6,2,9,0.00
2013-12-15,32,25,19,30,24,17,100,93,84,0.00,40.00,10,4,13,0.00
2013-12-16,42,30,21,32,27,19,95,86,67,0.00,40.00,9,4,12,0.00
2013-12-17,34,29,23,33,28,22,100,96,92,0.00,40.00,5,2,7,0.00
2013-12-18,45,31,22,31,23,13,96,75,52,0.00,40.00,9,5,12,0.00
2013-12-19,34,27,17,14,8,4,56,44,33,0.00,40.00,14,4,18,0.00
2013-12-20,27,22,16,19,14,9,84,69,56,0.00,40.00,7,3,9,0.00
2013-12-21,32,25,20,25,17,-100,91,80,72,0.00,40.00,3,2,6,0.00
2013-12-22,33,26,21,27,22,20,95,84,69,0.00,40.00,5,2,6,0.00
2013-12-23,50,35,24,32,28,23,95,76,45,0.00,40.00,24,6,38,0.00
2013-12-24,44,33,22,29,25,19,88,72,55,0.00,40.00,7,4,10,0.00
2013-12-25,35,27,19,28,24,17,95,87,72,0.00,40.00,6,2,6,0.00
2013-12-26,38,28,23,29,24,20,95,86,66,0.00,40.00,5,1,6,0.00
2013-12-27,31,27,21,29,25,19,95,92,84,0.00,40.00,9,2,14,0.00
2013-12-28,29,25,23,28,20,-100,95,91,91,0.00,40.00,7,2,12,0.00
2013-12-29,26,25,23,25,23,22,95,94,91,0.00,40.00,3,1,3,0.00
2013-12-30,32,29,26,31,28,25,100,96,92,0.00,40.00,3,1,9,0.00
2013-12-31,32,28,23,31,27,22,100,96,88,0.00,40.00,10,4,13,0.00
2014-1-1,30,26,23,29,26,21,100,95,91,0.00,40.00,5,2,6,0.00
2014-1-2,31,30,29,31,29,28,100,97,95,0.00,40.00,5,2,9,0.00